timestamp,wind_dir_avg,wind_spd_avg,wind_spd_max_dir,wind_spd_gust,battery_voltage,lat,long
2021-01-29 00:04:01+00:00,330.0,6.75,326.0,7.82,12.57,47.59359,-54.27349
2021-01-29 00:14:01+00:00,326.0,5.32,316.0,6.91,12.49,47.59359,-54.27349
2021-01-29 00:24:01+00:00,327.0,6.6,329.0,7.81,12.49,47.59359,-54.27349
2021-01-29 00:34:01+00:00,323.0,6.66,321.0,7.59,12.49,47.59359,-54.27349
2021-01-29 00:44:01+00:00,320.0,7.99,321.0,9.05,12.49,47.59359,-54.27349
2021-01-29 00:54:01+00:00,324.0,7.16,325.0,7.86,12.49,47.59359,-54.27349
2021-01-29 01:04:01+00:00,326.0,7.77,324.0,8.71,12.49,47.59359,-54.27349
2021-01-29 01:14:01+00:00,324.0,8.61,326.0,9.94,12.49,47.59359,-54.27349
2021-01-29 01:24:01+00:00,319.0,8.05,315.0,9.49,12.49,47.59359,-54.27349
2021-01-29 01:34:01+00:00,312.0,8.42,313.0,9.5,12.49,47.59359,-54.27349
2021-01-29 01:44:01+00:00,315.0,8.8,316.0,9.82,12.49,47.59359,-54.27349
2021-01-29 01:54:01+00:00,326.0,8.58,332.0,9.77,12.49,47.59359,-54.27349
2021-01-29 02:04:01+00:00,327.0,8.1,325.0,9.22,12.49,47.59359,-54.27349
2021-01-29 02:14:01+00:00,327.0,7.53,327.0,8.52,12.41,47.59359,-54.27349
2021-01-29 02:24:01+00:00,322.0,8.15,320.0,9.76,12.41,47.59359,-54.27349
2021-01-29 02:34:01+00:00,323.0,7.03,326.0,8.28,12.41,47.59359,-54.27349
2021-01-29 02:44:01+00:00,304.0,7.64,311.0,10.69,12.41,47.59359,-54.27349
2021-01-29 02:54:01+00:00,319.0,7.13,306.0,7.78,12.41,47.59359,-54.27349
2021-01-29 03:04:01+00:00,323.0,7.03,322.0,8.16,12.41,47.59359,-54.27349
2021-01-29 03:14:01+00:00,324.0,6.61,325.0,7.68,12.41,47.59359,-54.27349
2021-01-29 03:24:01+00:00,329.0,7.87,326.0,9.17,12.41,47.59359,-54.27349
2021-01-29 03:34:01+00:00,328.0,7.26,328.0,8.3,12.41,47.59359,-54.27349
2021-01-29 03:44:01+00:00,327.0,7.73,331.0,8.76,12.41,47.59359,-54.27349
2021-01-29 03:54:01+00:00,329.0,6.62,336.0,8.65,12.41,47.59359,-54.27349
2021-01-29 04:04:01+00:00,331.0,6.74,326.0,8.13,12.41,47.59359,-54.27349
2021-01-29 04:14:01+00:00,331.0,5.86,319.0,7.27,12.41,47.59359,-54.27349
2021-01-29 04:24:01+00:00,330.0,6.82,330.0,7.61,12.41,47.59359,-54.27349
2021-01-29 04:34:01+00:00,325.0,5.11,326.0,6.15,12.41,47.59359,-54.27349
2021-01-29 04:44:01+00:00,330.0,5.41,337.0,6.07,12.41,47.59359,-54.27349
2021-01-29 04:54:01+00:00,331.0,6.94,334.0,7.84,12.41,47.59359,-54.27349
2021-01-29 05:04:01+00:00,328.0,7.1,329.0,8.07,12.41,47.59359,-54.27349
2021-01-29 05:14:01+00:00,332.0,5.86,331.0,6.93,12.41,47.59359,-54.27349
2021-01-29 05:24:01+00:00,337.0,7.21,328.0,8.6,12.41,47.59359,-54.27349
2021-01-29 05:34:01+00:00,339.0,7.15,328.0,8.48,12.41,47.59359,-54.27349
2021-01-29 05:44:01+00:00,337.0,5.79,331.0,7.07,12.41,47.59359,-54.27349
2021-01-29 05:54:01+00:00,335.0,6.4,330.0,8.65,12.41,47.59359,-54.27349
2021-01-29 06:04:01+00:00,331.0,4.93,341.0,6.0,12.41,47.59359,-54.27349
2021-01-29 06:14:01+00:00,352.0,4.9,353.0,6.14,12.33,47.59359,-54.27349
2021-01-29 06:24:01+00:00,345.0,4.12,339.0,5.57,12.33,47.59359,-54.27349
2021-01-29 06:34:01+00:00,336.0,3.29,337.0,4.33,12.33,47.59359,-54.27349
2021-01-29 06:44:01+00:00,329.0,3.38,335.0,4.41,12.33,47.59359,-54.27349
2021-01-29 06:54:01+00:00,338.0,3.82,339.0,4.43,12.33,47.59359,-54.27349
2021-01-29 07:04:01+00:00,329.0,4.36,324.0,5.02,12.33,47.59359,-54.27349
2021-01-29 07:14:01+00:00,336.0,3.52,342.0,4.16,12.33,47.59359,-54.27349
2021-01-29 07:24:01+00:00,334.0,3.88,333.0,4.55,12.33,47.59359,-54.27349
2021-01-29 07:34:01+00:00,326.0,3.96,329.0,4.95,12.33,47.59359,-54.27349
2021-01-29 07:44:01+00:00,321.0,3.87,327.0,4.71,12.33,47.59359,-54.27349
2021-01-29 07:54:01+00:00,317.0,3.77,312.0,4.67,12.33,47.59359,-54.27349
2021-01-29 08:04:01+00:00,328.0,3.94,322.0,4.48,12.33,47.59359,-54.27349
2021-01-29 08:14:01+00:00,328.0,4.12,329.0,4.7,12.25,47.59359,-54.27349
2021-01-29 08:24:01+00:00,325.0,3.63,329.0,4.68,12.25,47.59359,-54.27349
2021-01-29 08:34:01+00:00,342.0,3.66,341.0,4.62,12.25,47.59359,-54.27349
2021-01-29 08:44:01+00:00,321.0,1.4,328.0,2.03,12.25,47.59359,-54.27349
2021-01-29 08:54:01+00:00,331.0,2.16,336.0,2.68,12.25,47.59359,-54.27349
2021-01-29 09:04:01+00:00,341.0,2.73,346.0,3.59,12.25,47.59359,-54.27349
2021-01-29 09:14:01+00:00,343.0,4.2,332.0,5.21,12.25,47.59359,-54.27349
2021-01-29 09:24:01+00:00,6.0,5.17,4.0,6.02,12.25,47.59359,-54.27349
2021-01-29 09:34:01+00:00,358.0,6.08,1.0,6.86,12.25,47.59359,-54.27349
2021-01-29 09:44:01+00:00,7.0,5.88,12.0,7.06,12.25,47.59359,-54.27349
2021-01-29 09:54:01+00:00,4.0,5.77,2.0,6.68,12.25,47.59359,-54.27349
2021-01-29 10:04:01+00:00,6.0,5.64,13.0,6.27,12.25,47.59359,-54.27349
2021-01-29 10:14:01+00:00,16.0,7.79,10.0,9.01,12.25,47.59359,-54.27349
2021-01-29 10:24:01+00:00,11.0,8.71,14.0,10.93,12.25,47.59359,-54.27349
2021-01-29 10:34:01+00:00,31.0,8.27,29.0,9.99,12.25,47.59359,-54.27349
2021-01-29 10:44:01+00:00,19.0,7.78,14.0,8.7,12.25,47.59359,-54.27349
2021-01-29 10:54:01+00:00,21.0,6.89,20.0,7.98,12.25,47.59359,-54.27349
2021-01-29 11:04:01+00:00,16.0,6.3,15.0,7.69,12.25,47.59359,-54.27349
2021-01-29 11:14:01+00:00,16.0,6.61,10.0,8.82,12.25,47.59359,-54.27349
2021-01-29 11:24:01+00:00,21.0,8.05,31.0,9.2,12.25,47.59359,-54.27349
2021-01-29 11:34:01+00:00,14.0,8.0,21.0,9.92,12.25,47.59359,-54.27349
2021-01-29 11:44:01+00:00,16.0,8.28,18.0,9.95,12.25,47.59359,-54.27349
2021-01-29 11:54:01+00:00,27.0,6.44,33.0,7.76,12.25,47.59359,-54.27349
2021-01-29 12:04:01+00:00,30.0,6.66,33.0,7.83,12.25,47.59359,-54.27349
2021-01-29 12:14:01+00:00,28.0,6.75,37.0,7.96,12.33,47.59359,-54.27349
2021-01-29 12:24:01+00:00,27.0,5.94,35.0,7.85,12.33,47.59359,-54.27349
2021-01-29 12:34:01+00:00,54.0,4.18,52.0,4.94,12.33,47.59359,-54.27349
2021-01-29 12:44:01+00:00,63.0,5.95,68.0,8.23,12.33,47.59359,-54.27349
2021-01-29 12:54:01+00:00,63.0,4.61,54.0,5.34,12.33,47.59359,-54.27349
2021-01-29 13:04:01+00:00,69.0,6.04,71.0,7.14,12.33,47.59359,-54.27349
2021-01-29 13:14:01+00:00,64.0,7.92,60.0,9.45,12.65,47.59359,-54.27349
2021-01-29 13:24:01+00:00,45.0,6.3,43.0,7.61,12.65,47.59359,-54.27349
2021-01-29 13:34:01+00:00,39.0,6.12,47.0,8.31,12.65,47.59359,-54.27349
2021-01-29 13:44:01+00:00,44.0,6.18,49.0,8.28,12.65,47.59359,-54.27349
2021-01-29 13:54:01+00:00,33.0,6.84,35.0,7.6,12.65,47.59359,-54.27349
2021-01-29 14:04:01+00:00,58.0,6.76,57.0,7.83,12.65,47.59359,-54.27349
2021-01-29 14:14:01+00:00,53.0,8.2,55.0,9.1,13.29,47.59359,-54.27349
2021-01-29 14:24:01+00:00,36.0,8.91,45.0,10.13,13.29,47.59359,-54.27349
2021-01-29 14:34:01+00:00,37.0,7.93,45.0,9.74,13.29,47.59359,-54.27349
2021-01-29 14:44:01+00:00,42.0,7.79,50.0,8.95,13.29,47.59359,-54.27349
2021-01-29 14:54:01+00:00,35.0,8.38,40.0,10.02,13.29,47.59359,-54.27349
2021-01-29 15:04:01+00:00,37.0,8.95,34.0,10.26,13.29,47.59359,-54.27349
2021-01-29 15:14:01+00:00,43.0,9.54,49.0,11.4,13.76,47.59359,-54.27349
2021-01-29 15:24:01+00:00,57.0,9.21,61.0,11.12,13.76,47.59359,-54.27349
2021-01-29 15:34:01+00:00,43.0,9.23,47.0,10.2,13.76,47.59359,-54.27349
2021-01-29 15:44:01+00:00,34.0,10.39,40.0,11.82,13.76,47.59359,-54.27349
2021-01-29 15:54:01+00:00,35.0,8.88,42.0,10.73,13.76,47.59359,-54.27349
2021-01-29 16:04:01+00:00,39.0,9.67,42.0,11.66,13.76,47.59359,-54.27349
2021-01-29 16:14:01+00:00,32.0,10.48,32.0,11.53,13.76,47.59359,-54.27349
2021-01-29 16:24:01+00:00,47.0,9.71,49.0,13.1,13.76,47.59359,-54.27349
2021-01-29 16:34:01+00:00,51.0,10.19,49.0,11.71,13.76,47.59359,-54.27349
2021-01-29 16:44:01+00:00,36.0,11.78,36.0,13.53,13.76,47.59359,-54.27349
2021-01-29 16:54:01+00:00,41.0,11.36,43.0,13.23,13.76,47.59359,-54.27349
2021-01-29 17:04:01+00:00,31.0,13.38,34.0,15.38,13.76,47.59359,-54.27349
2021-01-29 17:14:01+00:00,44.0,11.01,45.0,12.24,13.68,47.59359,-54.27349
2021-01-29 17:24:01+00:00,37.0,12.68,34.0,14.89,13.68,47.59359,-54.27349
2021-01-29 17:34:01+00:00,35.0,11.78,44.0,13.84,13.68,47.59359,-54.27349
2021-01-29 17:44:01+00:00,48.0,11.33,47.0,13.13,13.68,47.59359,-54.27349
2021-01-29 17:54:01+00:00,44.0,11.78,38.0,13.95,13.68,47.59359,-54.27349
2021-01-29 18:04:01+00:00,46.0,12.63,46.0,14.39,13.68,47.59359,-54.27349
2021-01-29 18:14:01+00:00,46.0,12.88,52.0,14.48,13.44,47.59359,-54.27349
2021-01-29 18:24:01+00:00,37.0,12.19,37.0,14.29,13.44,47.59359,-54.27349
2021-01-29 18:34:01+00:00,42.0,10.68,38.0,12.02,13.44,47.59359,-54.27349
2021-01-29 18:44:01+00:00,36.0,12.89,36.0,15.8,13.44,47.59359,-54.27349
2021-01-29 18:54:01+00:00,52.0,13.16,52.0,15.54,13.44,47.59359,-54.27349
2021-01-29 19:04:01+00:00,44.0,12.81,43.0,14.83,13.44,47.59359,-54.27349
2021-01-29 19:14:01+00:00,47.0,12.75,40.0,17.52,13.13,47.59359,-54.27349
2021-01-29 19:24:01+00:00,49.0,15.04,51.0,16.47,13.13,47.59359,-54.27349
2021-01-29 19:34:01+00:00,48.0,11.9,48.0,13.98,13.13,47.59359,-54.27349
2021-01-29 19:44:01+00:00,46.0,13.44,44.0,15.23,13.13,47.59359,-54.27349
2021-01-29 19:54:01+00:00,44.0,13.15,41.0,15.09,13.13,47.59359,-54.27349
2021-01-29 20:04:01+00:00,46.0,13.4,46.0,14.85,13.13,47.59359,-54.27349
2021-01-29 20:14:01+00:00,44.0,12.68,46.0,13.89,12.81,47.59359,-54.27349
2021-01-29 20:24:01+00:00,53.0,14.56,53.0,16.41,12.81,47.59359,-54.27349
2021-01-29 20:34:01+00:00,54.0,12.38,58.0,13.95,12.81,47.59359,-54.27349
2021-01-29 20:44:01+00:00,53.0,12.56,53.0,15.21,12.81,47.59359,-54.27349
2021-01-29 20:54:01+00:00,48.0,12.09,52.0,15.47,12.81,47.59359,-54.27349
2021-01-29 21:04:01+00:00,35.0,13.18,35.0,15.23,12.81,47.59359,-54.27349
2021-01-29 21:14:01+00:00,40.0,14.56,37.0,15.68,12.57,47.59359,-54.27349
2021-01-29 21:24:01+00:00,40.0,12.68,40.0,14.83,12.57,47.59359,-54.27349
2021-01-29 21:34:01+00:00,38.0,13.5,40.0,15.24,12.57,47.59359,-54.27349
2021-01-29 21:44:01+00:00,51.0,12.58,53.0,14.18,12.57,47.59359,-54.27349
2021-01-29 21:54:01+00:00,41.0,13.91,44.0,15.99,12.57,47.59359,-54.27349
2021-01-29 22:04:01+00:00,40.0,12.99,42.0,15.23,12.57,47.59359,-54.27349
2021-01-29 22:14:01+00:00,40.0,12.67,39.0,15.06,12.49,47.59359,-54.27349
2021-01-29 22:24:01+00:00,45.0,13.21,41.0,14.94,12.49,47.59359,-54.27349
2021-01-29 22:34:01+00:00,43.0,14.23,43.0,15.99,12.49,47.59359,-54.27349
2021-01-29 22:44:01+00:00,30.0,13.39,31.0,15.98,12.49,47.59359,-54.27349
2021-01-29 22:54:01+00:00,41.0,14.06,38.0,16.77,12.49,47.59359,-54.27349
2021-01-29 23:04:01+00:00,37.0,13.8,41.0,15.5,12.49,47.59359,-54.27349
2021-01-29 23:14:01+00:00,41.0,13.89,34.0,16.39,12.49,47.59359,-54.27349
2021-01-29 23:24:01+00:00,32.0,13.87,30.0,16.3,12.49,47.59359,-54.27349
2021-01-29 23:34:01+00:00,30.0,14.51,31.0,16.74,12.49,47.59359,-54.27349
2021-01-29 23:44:01+00:00,33.0,13.15,41.0,15.81,12.49,47.59359,-54.27349
2021-01-29 23:54:01+00:00,38.0,14.01,49.0,15.42,12.49,47.59359,-54.27349
